[[{"header":{"parameterUnit":"m.s-1","parameterCategory":2,"la1":30.2992,"la2":30.254,"lo1":-89.0895,"lo2":-89.0443,"dy":0.0025,"dx":0.0025,"nx":19,"ny":19,"refTime":"2026-04-01T03:00:00:Z","depth":"0","parameterNumber":2,"parameterNumberName":"U-component_of_CURRENTS"},"data":[0,0,0,-0.1665,-0.1664,-0.1617,-0.1616,-0.1561,-0.1561,0,0,0,0,0,0,0,0,0,0,0,-0.169,-0.169,-0.1665,-0.1664,-0.1617,-0.1616,-0.1561,-0.1561,0,0,0,0,0,0,0,0,0,0,0,-0.169,-0.169,-0.169,-0.1664,-0.1617,-0.1616,-0.1561,-0.1596,0,0,0,0,0,0,0,0,0,0,-0.1642,-0.1673,-0.169,-0.169,-0.1664,-0.1617,-0.1616,-0.1598,-0.1594,-0.1584,0,-0.1582,0,-0.1566,-0.1557,-0.1557,0,0,0,-0.1664,-0.1676,-0.1652,-0.169,-0.1663,-0.1617,-0.1638,-0.1595,-0.1591,-0.1579,-0.1581,-0.1579,-0.1565,-0.1557,-0.1556,-0.1582,-0.1582,0,0,-0.1667,-0.169,-0.1656,-0.165,-0.1658,-0.164,-0.1637,-0.1593,-0.1598,-0.1581,-0.1577,-0.1564,-0.1556,-0.1556,-0.1581,-0.1582,0,0,0,-0.1674,-0.1692,-0.1669,-0.1653,-0.1641,-0.1638,-0.1635,-0.16,-0.159,-0.1577,-0.1564,-0.1556,-0.1555,-0.158,-0.1581,-0.1744,0,0,0,-0.1676,-0.1696,-0.1671,-0.1685,-0.1642,-0.1621,-0.1643,-0.1593,-0.1587,-0.1564,-0.1556,-0.1555,-0.158,-0.1581,-0.1738,-0.1809,0,0,0,-0.1691,-0.1697,-0.1692,-0.1686,-0.1663,-0.1621,-0.1609,-0.1591,-0.1579,-0.1557,-0.1555,-0.1579,-0.1581,-0.1733,-0.1799,-0.1858,0,0,0,-0.1716,-0.1724,-0.1693,-0.1717,-0.1663,-0.1668,-0.1609,-0.1604,-0.1592,-0.1556,-0.158,-0.1581,-0.1731,-0.1793,-0.1852,-0.1601,-0.1608,0,0,-0.174,-0.1728,-0.1747,-0.1717,-0.1763,-0.1674,-0.1741,-0.1692,-0.1614,-0.1592,-0.1593,-0.174,-0.1798,-0.1857,-0.1695,-0.1698,0,0,0,-0.1765,-0.1781,-0.1788,-0.1812,-0.1796,-0.1836,-0.1769,-0.1745,-0.1732,-0.1612,-0.1727,-0.1758,-0.179,-0.1626,-0.163,-0.1553,-0.1589,-0.1589,-0.1588,-0.1765,-0.1807,-0.1865,-0.1917,-0.194,-0.1943,-0.1971,-0.1927,-0.1824,-0.1843,-0.1882,-0.2025,-0.1851,-0.1851,-0.1777,-0.187,-0.187,-0.1871,-0.1871,-0.1799,-0.1812,-0.1938,-0.2001,-0.2071,-0.2113,-0.2156,-0.2119,-0.2135,-0.2019,-0.2042,-0.1794,-0.1864,-0.1783,-0.1881,-0.188,-0.1878,-0.1877,-0.1877,-0.1716,-0.1744,-0.1826,-0.1975,-0.2105,-0.2183,-0.2246,-0.2289,-0.2267,-0.232,-0.2063,-0.2055,-0.1989,-0.23,-0.2301,-0.2301,-0.2302,-0.2302,-0.2302,-0.1562,-0.1674,-0.1727,-0.1931,-0.1994,-0.2113,-0.2264,-0.2277,-0.2264,-0.2213,-0.2209,-0.2006,-0.2154,-0.2143,-0.2312,-0.231,-0.2309,-0.2308,-0.2307,-0.1411,-0.1462,-0.1546,-0.1615,-0.1796,-0.1799,-0.202,-0.2022,-0.2114,-0.2057,-0.1965,-0.2138,-0.2052,-0.2043,-0.2026,-0.2156,-0.2156,-0.2156,-0.2156,-0.1251,-0.1313,-0.1356,-0.1413,-0.1494,-0.1619,-0.149,-0.1594,-0.1722,-0.174,-0.1871,-0.171,-0.172,-0.1609,-0.161,-0.1581,-0.1596,-0.1596,-0.1596,-0.1141,-0.1194,-0.1151,-0.126,-0.1329,-0.1331,-0.1153,-0.1176,-0.1403,-0.1579,-0.1836,-0.186,-0.1634,-0.1654,-0.1478,-0.1485,-0.1436,0,0]},{"header":{"parameterUnit":"m.s-1","parameterCategory":2,"la1":30.2992,"la2":30.254,"lo1":-89.0895,"lo2":-89.0443,"dy":0.0025,"dx":0.0025,"nx":19,"ny":19,"refTime":"2026-04-01T03:00:00:Z","depth":"0","parameterNumber":3,"parameterNumberName":"V-component_of_CURRENTS"},"data":[0,0,0,0.0096,0.0097,0.015,0.015,0.026,0.0261,0,0,0,0,0,0,0,0,0,0,0,0.0076,0.0076,0.0096,0.0097,0.015,0.015,0.026,0.0261,0,0,0,0,0,0,0,0,0,0,0,0.0076,0.0076,0.0076,0.0097,0.015,0.015,0.026,0.0211,0,0,0,0,0,0,0,0,0,0,0.0155,0.013,0.0076,0.0076,0.0097,0.015,0.0151,0.0209,0.0214,0.0245,0,0.0246,0,0.0255,0.0269,0.0269,0,0,0,0.0105,0.0125,0.0136,0.0076,0.0098,0.015,0.0128,0.0211,0.0218,0.0253,0.0248,0.0252,0.0257,0.0269,0.027,0.0378,0.0378,0,0,0.0102,0.0093,0.0131,0.014,0.0104,0.0127,0.013,0.0215,0.0222,0.0248,0.0254,0.0258,0.027,0.0271,0.0377,0.0378,0,0,0,0.0088,0.0091,0.0099,0.0135,0.0141,0.0128,0.0132,0.0218,0.0219,0.0255,0.026,0.0271,0.0272,0.0377,0.0378,0.0349,0,0,0,0.0087,0.0082,0.0098,0.0094,0.0139,0.0175,0.0133,0.0213,0.0223,0.0259,0.0271,0.0273,0.0377,0.0377,0.0349,0.0322,0,0,0,0.0075,0.0081,0.0084,0.0093,0.0112,0.0174,0.018,0.0216,0.0226,0.0269,0.0274,0.0376,0.0377,0.0349,0.0323,0.0311,0,0,0,0.0069,0.0063,0.0083,0.0082,0.0112,0.0148,0.018,0.0214,0.0248,0.0271,0.0377,0.0378,0.0349,0.0323,0.0311,0.0298,0.0294,0,0,0.0055,0.0061,0.006,0.0079,0.0099,0.0141,0.0185,0.0239,0.0275,0.0352,0.0355,0.0349,0.0323,0.0311,0.0345,0.034,0,0,0,0.0051,0.0047,0.0058,0.0075,0.0112,0.0162,0.0219,0.0252,0.0316,0.0297,0.0374,0.0358,0.0351,0.0346,0.0342,0.0521,0.0381,0.0381,0.0381,0.0002,0.0026,0.0028,0.0067,0.0104,0.0182,0.0226,0.0288,0.0323,0.0349,0.0354,0.035,0.0346,0.0342,0.0528,0.0384,0.0384,0.0384,0.0384,-0.0047,-0.006,-0.0003,0.0004,0.0077,0.0121,0.0235,0.0273,0.0337,0.036,0.0355,0.034,0.0336,0.0536,0.0383,0.0383,0.0383,0.0383,0.0383,-0.0109,-0.0112,-0.0096,-0.0077,-0.0031,0.006,0.0092,0.0194,0.0291,0.0306,0.03,0.03,0.0458,0.0299,0.0298,0.0298,0.0298,0.0298,0.0298,-0.0196,-0.0173,-0.0203,-0.017,-0.0169,-0.0134,-0.0006,0.0051,0.0174,0.0262,0.0263,0.0489,0.0323,0.0306,0.0295,0.0296,0.0296,0.0296,0.0297,-0.0292,-0.0284,-0.0333,-0.0348,-0.0347,-0.0339,-0.0211,-0.005,0.0036,0.0103,0.0452,0.0251,0.0255,0.0259,0.0241,0.0214,0.0214,0.0214,0.0214,-0.037,-0.0366,-0.0442,-0.0485,-0.0515,-0.0436,-0.0345,-0.0103,0.0262,0.0464,0.0522,0.0576,0.0571,0.0598,0.0594,0.0585,0.0647,0.0648,0.0648,-0.044,-0.0449,-0.0519,-0.0546,-0.0583,-0.053,-0.0389,-0.0007,0.0514,0.0687,0.0779,0.076,0.0862,0.0839,0.0898,0.0879,0.087,0,0]}],[{"header":{"parameterUnit":"m.s-1","parameterCategory":2,"la1":30.2992,"la2":30.254,"lo1":-89.0895,"lo2":-89.0443,"dy":0.0025,"dx":0.0025,"nx":19,"ny":19,"refTime":"2026-04-01T03:00:00:Z","depth":"2","parameterNumber":2,"parameterNumberName":"U-component_of_CURRENTS"},"data":[0,0,0,-0.1456,-0.1454,-0.1374,-0.1374,-0.1291,-0.129,0,0,0,0,0,0,0,0,0,0,0,-0.1498,-0.1497,-0.1457,-0.1454,-0.1374,-0.1374,-0.1291,-0.129,0,0,0,0,0,0,0,0,0,0,0,-0.1498,-0.1498,-0.1497,-0.1454,-0.1374,-0.1374,-0.1291,-0.135,0,0,0,0,0,0,0,0,0,0,-0.1426,-0.1486,-0.1498,-0.1497,-0.1453,-0.1374,-0.1374,-0.1352,-0.1346,-0.133,0,-0.1317,0,-0.129,-0.1284,-0.1284,0,0,0,-0.1465,-0.1492,-0.1436,-0.1497,-0.1452,-0.1374,-0.1413,-0.1349,-0.1342,-0.1321,-0.1316,-0.1312,-0.1289,-0.1284,-0.1283,-0.1287,-0.1288,0,0,-0.147,-0.1515,-0.1441,-0.1432,-0.1431,-0.1416,-0.1411,-0.1344,-0.1357,-0.1315,-0.131,-0.1287,-0.1283,-0.1282,-0.1287,-0.1288,0,0,0,-0.1475,-0.1518,-0.1465,-0.1436,-0.1413,-0.1413,-0.1407,-0.1361,-0.1333,-0.1308,-0.1287,-0.1282,-0.1281,-0.1286,-0.1287,-0.1484,0,0,0,-0.1478,-0.1519,-0.1467,-0.1498,-0.1414,-0.1389,-0.1426,-0.1339,-0.133,-0.1287,-0.1282,-0.128,-0.1285,-0.1287,-0.1477,-0.1554,0,0,0,-0.1502,-0.1523,-0.1505,-0.15,-0.1454,-0.1389,-0.136,-0.1336,-0.1315,-0.1284,-0.128,-0.1285,-0.1286,-0.1471,-0.1543,-0.1598,0,0,0,-0.156,-0.156,-0.1507,-0.1516,-0.1455,-0.1443,-0.1361,-0.1356,-0.134,-0.1282,-0.1285,-0.1287,-0.1469,-0.1536,-0.1592,-0.1311,-0.1319,0,0,-0.159,-0.1566,-0.157,-0.1519,-0.1536,-0.1455,-0.1515,-0.145,-0.1359,-0.1308,-0.1308,-0.1479,-0.1542,-0.1597,-0.1412,-0.1416,0,0,0,-0.1599,-0.1598,-0.1594,-0.1594,-0.1568,-0.1611,-0.1534,-0.1509,-0.1484,-0.1351,-0.1459,-0.1491,-0.152,-0.1337,-0.1341,-0.1295,-0.1295,-0.1295,-0.1295,-0.1621,-0.1632,-0.1662,-0.1676,-0.1703,-0.1716,-0.1754,-0.1705,-0.1586,-0.1609,-0.1639,-0.1794,-0.1601,-0.16,-0.1624,-0.1625,-0.1626,-0.1626,-0.1627,-0.1633,-0.1622,-0.1714,-0.1744,-0.1817,-0.1864,-0.193,-0.1905,-0.1923,-0.1797,-0.1815,-0.1536,-0.1616,-0.1642,-0.1639,-0.1637,-0.1635,-0.1634,-0.1633,-0.1563,-0.1575,-0.1625,-0.173,-0.1843,-0.1925,-0.2008,-0.2085,-0.2071,-0.214,-0.1835,-0.1827,-0.1904,-0.2108,-0.2109,-0.211,-0.211,-0.2111,-0.2111,-0.1447,-0.1518,-0.1547,-0.1696,-0.1734,-0.1856,-0.2034,-0.2058,-0.2053,-0.2009,-0.2005,-0.1955,-0.1939,-0.1929,-0.2121,-0.2119,-0.2118,-0.2117,-0.2116,-0.1307,-0.1353,-0.1397,-0.144,-0.1568,-0.1573,-0.1802,-0.1806,-0.1899,-0.1831,-0.1917,-0.1918,-0.1813,-0.1803,-0.1785,-0.193,-0.193,-0.193,-0.193,-0.1172,-0.122,-0.1223,-0.1248,-0.1308,-0.1417,-0.1313,-0.139,-0.1543,-0.1599,-0.1614,-0.1445,-0.1457,-0.1323,-0.1323,-0.1292,-0.131,-0.1309,-0.1309,-0.106,-0.1099,-0.1037,-0.1111,-0.1149,-0.1167,-0.1012,-0.0977,-0.1105,-0.1293,-0.1601,-0.187,-0.1651,-0.166,-0.1469,-0.1465,-0.1421,0,0]},{"header":{"parameterUnit":"m.s-1","parameterCategory":2,"la1":30.2992,"la2":30.254,"lo1":-89.0895,"lo2":-89.0443,"dy":0.0025,"dx":0.0025,"nx":19,"ny":19,"refTime":"2026-04-01T03:00:00:Z","depth":"2","parameterNumber":3,"parameterNumberName":"V-component_of_CURRENTS"},"data":[0,0,0,-0.0052,-0.0052,-0.0044,-0.0044,-0.0004,-0.0004,0,0,0,0,0,0,0,0,0,0,0,-0.0055,-0.0055,-0.0052,-0.0052,-0.0044,-0.0044,-0.0004,-0.0004,0,0,0,0,0,0,0,0,0,0,0,-0.0055,-0.0055,-0.0055,-0.0052,-0.0044,-0.0044,-0.0004,-0.0017,0,0,0,0,0,0,0,0,0,0,-0.0027,-0.0027,-0.0055,-0.0055,-0.0052,-0.0044,-0.0044,-0.0017,-0.0016,-0.0001,0,-0.0004,0,-0.0005,-0.0001,-0.0001,0,0,0,-0.0047,-0.0028,-0.0036,-0.0055,-0.0052,-0.0044,-0.0046,-0.0017,-0.0015,0.0001,-0.0004,-0.0003,-0.0004,-0.0001,-0.0001,0.0091,0.0092,0,0,-0.0047,-0.0041,-0.0038,-0.0035,-0.0055,-0.0046,-0.0046,-0.0016,-0.0009,-0.0004,-0.0002,-0.0003,-0.0,-0.0,0.009,0.0091,0,0,0,-0.0052,-0.0041,-0.005,-0.0037,-0.0039,-0.0046,-0.0046,-0.001,-0.0016,-0.0001,-0.0003,-0.0,0.0,0.0089,0.0091,0.0104,0,0,0,-0.0052,-0.0045,-0.0051,-0.0045,-0.0039,-0.0026,-0.0041,-0.0019,-0.0015,-0.0003,-0.0,0.0001,0.0089,0.009,0.0102,0.0079,0,0,0,-0.0054,-0.0045,-0.0048,-0.0045,-0.0045,-0.0027,-0.0031,-0.0018,-0.0016,-0.0001,0.0001,0.0088,0.009,0.01,0.0077,0.0074,0,0,0,-0.0043,-0.0047,-0.0048,-0.0046,-0.0046,-0.0021,-0.0031,-0.0009,0.0006,-0.0,0.0089,0.009,0.01,0.0076,0.0074,0.0062,0.0064,0,0,-0.0044,-0.0047,-0.0046,-0.0047,-0.0038,-0.0021,0.0017,0.0026,0.0039,0.008,0.0082,0.0103,0.0077,0.0074,0.0156,0.0155,0,0,0,-0.0044,-0.0053,-0.0045,-0.0042,-0.0017,0.0013,0.0037,0.006,0.0102,0.0054,0.0132,0.0115,0.0113,0.0106,0.0106,0.0098,0.0098,0.0098,0.0098,-0.0079,-0.0064,-0.0067,-0.0046,-0.0014,0.0044,0.0081,0.0123,0.0132,0.0165,0.015,0.0185,0.0182,0.0181,0.0192,0.0193,0.0193,0.0193,0.0193,-0.013,-0.0151,-0.0104,-0.0104,-0.0044,-0.0004,0.0103,0.0135,0.0195,0.02,0.0198,0.015,0.0181,0.0194,0.0194,0.0194,0.0194,0.0194,0.0193,-0.0198,-0.0204,-0.0192,-0.0186,-0.0145,-0.0062,-0.0022,0.0081,0.0175,0.0201,0.0177,0.0176,0.0156,0.0194,0.0194,0.0194,0.0194,0.0194,0.0194,-0.0288,-0.027,-0.0305,-0.0281,-0.0281,-0.0243,-0.0105,-0.0041,0.0088,0.0174,0.0174,0.0185,0.0185,0.0157,0.0192,0.0193,0.0193,0.0193,0.0193,-0.0389,-0.0381,-0.0436,-0.0451,-0.045,-0.043,-0.0293,-0.0112,-0.0021,0.0049,0.0169,0.017,0.0154,0.0154,0.0126,0.0151,0.0151,0.0151,0.0151,-0.0468,-0.0466,-0.0546,-0.0587,-0.0607,-0.0518,-0.0402,-0.0163,0.0054,0.0163,0.0162,0.0175,0.0177,0.0162,0.0162,0.0134,0.0162,0.0162,0.0162,-0.0542,-0.0553,-0.0623,-0.0647,-0.067,-0.0597,-0.0442,-0.0118,0.0152,0.0163,0.0178,0.0149,0.0168,0.017,0.0146,0.0147,0.0102,0,0]}],[{"header":{"parameterUnit":"m.s-1","parameterCategory":2,"la1":30.2992,"la2":30.254,"lo1":-89.0895,"lo2":-89.0443,"dy":0.0025,"dx":0.0025,"nx":19,"ny":19,"refTime":"2026-04-01T03:00:00:Z","depth":"4","parameterNumber":2,"parameterNumberName":"U-component_of_CURRENTS"},"data":[0,0,0,-0.0162,-0.0162,-0.0179,-0.0179,-0.0082,-0.0081,0,0,0,0,0,0,0,0,0,0,0,-0.0124,-0.0123,-0.0161,-0.0162,-0.0179,-0.0179,-0.0082,-0.0081,0,0,0,0,0,0,0,0,0,0,0,-0.0124,-0.0123,-0.0123,-0.0162,-0.0179,-0.0179,-0.0082,-0.0096,0,0,0,0,0,0,0,0,0,0,-0.0093,-0.0089,-0.0124,-0.0123,-0.0163,-0.0179,-0.0179,-0.0098,-0.0095,-0.0044,0,-0.0032,0,-0.007,-0.0073,-0.0072,0,0,0,-0.015,-0.0092,-0.0094,-0.0123,-0.0163,-0.0179,-0.0168,-0.0097,-0.0094,-0.004,-0.0032,-0.003,-0.0068,-0.0072,-0.0071,0.0024,0.0024,0,0,-0.0149,-0.013,-0.0096,-0.0091,-0.0146,-0.0168,-0.0169,-0.0097,-0.0082,-0.0031,-0.0029,-0.0067,-0.0071,-0.007,0.0024,0.0024,0,0,0,-0.0155,-0.0129,-0.0135,-0.0093,-0.0115,-0.0169,-0.017,-0.0085,-0.0086,-0.0028,-0.0066,-0.007,-0.0069,0.0024,0.0024,-0.0165,0,0,0,-0.0154,-0.0134,-0.0134,-0.0124,-0.0116,-0.0121,-0.016,-0.009,-0.0085,-0.0066,-0.007,-0.0068,0.0024,0.0024,-0.0161,-0.0281,0,0,0,-0.0127,-0.0133,-0.0127,-0.0123,-0.014,-0.0124,-0.0121,-0.009,-0.0108,-0.0072,-0.0067,0.0023,0.0024,-0.0156,-0.0271,-0.0372,0,0,0,-0.0118,-0.0096,-0.0126,-0.01,-0.0139,-0.0127,-0.0122,-0.0083,-0.0046,-0.007,0.0024,0.0024,-0.0155,-0.0265,-0.0365,-0.0236,0,0,0,-0.0089,-0.0092,-0.0075,-0.0103,-0.0116,-0.0125,-0.0141,-0.0081,-0.003,0.001,0.0012,-0.0162,-0.027,-0.037,-0.0214,0,0,0,0,-0.0066,-0.0118,-0.0107,-0.0123,-0.0078,-0.015,-0.0101,-0.0107,-0.0112,-0.0013,-0.0102,-0.0163,-0.0222,-0.0121,0.0025,0.0025,0.0025,0.0025,0.0025,-0.0161,-0.0134,-0.019,-0.0208,-0.0204,-0.0144,-0.0203,-0.0205,-0.0122,-0.0157,-0.0272,-0.0419,-0.0312,-0.0195,-0.0196,-0.0197,-0.0198,-0.0198,-0.0199,-0.0276,-0.0293,-0.037,-0.0435,-0.0418,-0.0442,-0.0437,-0.0389,-0.0484,-0.0378,-0.0425,-0.0269,-0.0216,-0.0213,-0.021,-0.0208,-0.0207,-0.0206,-0.0205,-0.0315,-0.0319,-0.0419,-0.0539,-0.0662,-0.0668,-0.0769,-0.0736,-0.0709,-0.0759,-0.0616,-0.0552,-0.0591,-0.0771,-0.0772,-0.0773,-0.0774,-0.0775,-0.0775,-0.0238,-0.0345,-0.0449,-0.0649,-0.0756,-0.0882,-0.0944,-0.0987,-0.0955,-0.0835,-0.0822,-0.0612,-0.0593,-0.062,-0.079,-0.0788,-0.0786,-0.0784,-0.0783,-0.0175,-0.0182,-0.0348,-0.0464,-0.0727,-0.0831,-0.097,-0.1046,-0.1072,-0.1022,-0.0852,-0.0844,-0.0774,-0.0752,-0.0782,-0.1008,-0.1007,-0.1006,0,-0.0054,-0.0101,-0.0244,-0.0403,-0.0584,-0.0762,-0.0819,-0.0898,-0.0934,-0.0901,-0.0992,-0.0795,-0.0788,-0.0696,-0.0676,-0.0704,0,0,0,-0.0002,-0.0059,-0.0121,-0.0311,-0.0522,-0.0683,-0.0835,-0.0852,-0.0927,-0.0961,-0.0983,-0.0989,-0.0814,-0.0835,-0.071,-0.0687,-0.0725,0,0]},{"header":{"parameterUnit":"m.s-1","parameterCategory":2,"la1":30.2992,"la2":30.254,"lo1":-89.0895,"lo2":-89.0443,"dy":0.0025,"dx":0.0025,"nx":19,"ny":19,"refTime":"2026-04-01T03:00:00:Z","depth":"4","parameterNumber":3,"parameterNumberName":"V-component_of_CURRENTS"},"data":[0,0,0,-0.0041,-0.0043,-0.0082,-0.0082,0.0013,0.0013,0,0,0,0,0,0,0,0,0,0,0,0.001,0.001,-0.0041,-0.0044,-0.0082,-0.0082,0.0012,0.0013,0,0,0,0,0,0,0,0,0,0,0,0.001,0.001,0.0009,-0.0044,-0.0082,-0.0082,0.0012,0.0015,0,0,0,0,0,0,0,0,0,0,0.0039,0.0056,0.001,0.0009,-0.0045,-0.0083,-0.0082,0.0014,0.0015,0.0059,0,0.005,0,0.0003,0.0019,0.002,0,0,0,-0.0005,0.0055,0.0026,0.0009,-0.0045,-0.0083,-0.0054,0.0014,0.0015,0.0061,0.0051,0.0052,0.0005,0.002,0.0021,0.0081,0.0081,0,0,-0.0003,0.0025,0.0025,0.0026,-0.0057,-0.0053,-0.0056,0.0013,0.0028,0.0051,0.0053,0.0006,0.0021,0.0021,0.0081,0.0081,0,0,0,-0.0023,0.0027,-0.0005,0.0025,-0.0011,-0.0055,-0.0058,0.0027,0.001,0.0053,0.0007,0.0021,0.0022,0.0081,0.0081,0.002,0,0,0,-0.0019,0.0011,-0.0004,0.0015,-0.0014,-0.0015,-0.0046,0.0007,0.0011,0.0007,0.0021,0.0023,0.0081,0.0081,0.0021,-0.0005,0,0,0,0.0012,0.0014,0.0005,0.0016,-0.0026,-0.0018,-0.0028,0.0007,-0.0018,0.002,0.0023,0.0081,0.0081,0.0023,-0.0002,0.0014,0,0,0,0.0048,0.0043,0.0006,-0.0008,-0.0026,-0.0063,-0.003,-0.0018,0.0015,0.0022,0.0081,0.0081,0.0023,-0.0,0.0015,0.0058,0,0,0,0.0058,0.0046,0.0034,-0.0003,-0.0069,-0.0055,-0.0086,-0.002,0.0029,0.0076,0.0076,0.0021,-0.0002,0.0014,0.0056,0,0,0,0,0.0046,0.0025,0.0005,-0.0044,-0.0073,-0.0122,-0.008,-0.0047,0.0007,0.0036,0.0037,0.0025,0.0037,0.0067,0.0081,0.0081,0.0081,0.0081,0.0081,0.0026,0.0,-0.0044,-0.0097,-0.0107,-0.0143,-0.0144,-0.0093,-0.0024,-0.0004,-0.0013,-0.0027,0.0002,0.0002,0.0002,0.0002,0.0001,0.0001,0.0001,-0.0056,-0.01,-0.0107,-0.0156,-0.0193,-0.0203,-0.0186,-0.0155,-0.0102,-0.0053,-0.0038,0.0014,-0.0005,-0.0003,-0.0003,-0.0002,-0.0001,-0.0001,-0.0001,-0.0137,-0.0148,-0.0175,-0.0238,-0.0256,-0.0253,-0.0235,-0.0206,-0.014,-0.0144,-0.0044,-0.005,-0.0057,-0.0098,-0.0098,-0.0098,-0.0098,-0.0098,-0.0098,-0.0211,-0.0229,-0.0292,-0.0325,-0.0329,-0.0313,-0.0257,-0.0199,-0.0136,-0.0099,-0.0123,-0.0059,-0.0056,-0.006,-0.0099,-0.0099,-0.0099,-0.0099,-0.0099,-0.0288,-0.0305,-0.0399,-0.0428,-0.0437,-0.0407,-0.0325,-0.0163,-0.0113,-0.0058,-0.007,-0.0071,-0.0036,-0.0032,-0.0035,-0.0068,-0.0067,-0.0067,0,-0.033,-0.0356,-0.0465,-0.0517,-0.0521,-0.0456,-0.0329,-0.022,-0.0132,-0.0155,-0.0165,-0.0191,-0.0187,-0.0157,-0.0153,-0.0162,0,0,0,-0.0372,-0.0409,-0.0477,-0.0546,-0.0542,-0.0393,-0.0289,-0.0228,-0.0158,-0.0023,-0.0056,-0.0059,-0.0058,-0.0102,-0.0049,-0.0045,-0.0049,0,0]}]]